SCP
0 0 0 0 0 -0 0 -0 0 0 0 0 -0 -0 -0 -0 0 0 0 0 0 0 0 0 0 0 0 0 0 0 0 0 0 0 0 0 0 0 0 0 0 0 0 0
0 0 0 0 0 -0 0 0 0 0 0 0 0 -0 -0 -0 0 0 0 0 0 0 0 0 0 0 0 0 0 0 0 0 0 0 0 0 0 0 0 0 0 0 0 0
0 0 -0 -0 0 0 0 0 0 0 0 0 0 0 -0 -0 -0 0 0 0 0 0 0 0 0 0 0 0 0 0 0 0 0 0 0 0 0 0 0 0 0 0 0 0
0 0 0 -0 -0 0 0 0 0 0 0 0 -0 -0 0 0 0 0 0 0 0 0 0 0 0 0 0 0 0 0 0 0 0 0 0 0 0 0 0 0 0 0 0 0
-0 -0 0 -0 0 0 0 0 0 0 0 0 0 0 0 0 0 0 0 0 0 0 0 0 0 0 0 0 0 0 0 0 0 0 0 0 0 0 0 0 0 0 0 0
0 -0 -0 -0 0 0 0 0 0 0 0 0 0 0 0 0 0 0 0 0 0 0 0 0 0 0 0 0 0 0 0 0 0 0 0 0 0 0 0 0 0 0 0 0
0 0 -0 -0 0 -0 0 0 0 0 0 0 0 0 0 0 0 0 0 0 0 0 0 0 0 0 0 0 0 0 0 0 0 0 0 0 0 0 0 0 0 0 0 0
0 0 0 0 0 -0 -0 -0 0 -0 0 0 0 0 0 0 0 0 0 0 0 0 0 0 0 0 0 0 0 0 0 0 0 0 0 0 0 0 0 0 0 0 0 0
0 0 0 0 0 0 -0 -0 0 -0 -0 0 0 0 0 0 0 0 0 0 0 0 0 0 0 0 0 0 0 0 0 0 0 0 0 0 0 0 0 0 0 0 0 0
0 0 0 -0 -0 -0 -0 -0 -0 -0 -0 -0 0 0 0 0 0 0 0 0 0 0 0 0 0 0 0 0 0 0 0 0 0 0 0 0 0 0 0 0 0 0 0 0
0 0 0 0 0 -0 0 -0 -0 -0 -0 -0 -0 0 0 0 0 0 0 0 0 0 0 0 0 0 0 0 0 0 0 0 0 0 0 0 0 0 0 0 0 0 0 0
0 0 0 0 0 0 -0 -0 -0 -0 -0 -0 -0 0 -0 0 0 0 0 0 0 0 0 0 0 0 0 0 0 0 0 0 0 0 0 0 0 0 0 0 0 0 0 0
0 0 0 0 0 0 -0 -0 0 0 -0 0 0 0 0 -0 -0 -0 -0 0 0 0 0 0 0 0 0 0 0 0 0 0 0 0 0 0 0 0 0 0 0 0 0 0
0 0 0 0 0 0 0 0 0 -0 -0 -0 -0 -0 -0 -0 -0 -0 -0 -0 -0 0 0 0 0 0 0 0 0 0 0 0 0 0 0 0 0 0 0 0 0 0 0 0
0 0 0 0 0 0 0 0 0 -0 -0 0 0 -0 -0 -0 0 0 -0 -0 -0 -0 -0 -0 0 0 0 0 0 0 0 0 0 0 0 0 0 0 0 0 0 0 0 0
0 0 0 0 0 0 0 0 0 0 0 0 0 0 -0 -0 -0 -0 -0 -0 -0 -0 -0 -0 -0 0 0 0 0 0 0 0 0 0 0 0 0 0 0 0 0 0 0 0
0 0 0 0 0 0 0 0 0 0 0 0 0 0 0 0 0 -0 -0 -0 -0 -0 -0 -0 -0 -0 -0 -0 0 0 0 0 0 0 0 0 0 0 0 0 0 0 0 0
0 0 0 0 0 0 0 0 0 0 0 0 0 0 0 0 0 0 0 0 0 0 0 0 -0 -0 -0 -0 -0 -0 0 0 0 0 0 0 0 0 0 0 0 0 0 0
0 0 0 0 0 0 0 0 0 0 0 0 0 0 0 0 0 0 0 0 0 0 0 0 0 -0 -0 -0 -0 -0 -0 0 0 0 0 0 0 0 0 0 0 0 0 0
0 0 0 0 0 0 0 0 0 0 0 0 0 0 0 0 0 0 0 0 0 0 0 0 0 0 0 -0 -0 -0 -0 -0 0 0 0 0 0 0 0 0 0 0 0 0
0 0 0 0 0 0 0 0 0 0 0 0 0 0 0 0 0 0 0 0 0 0 0 0 0 0 0 0 -0 -0 -0 -0 0 0 0 0 0 0 0 0 0 0 0 0
0 0 0 0 0 0 0 0 0 0 0 0 0 0 0 0 0 0 0 0 0 0 0 0 0 0 0 0 0 0 -0 -0 0 0 0 0 0 0 0 0 0 0 0 0
0 0 0 0 0 0 0 0 0 0 0 0 0 0 0 0 0 0 0 0 0 0 0 0 0 0 0 0 0 0 0 0 0 0 0 0 0 0 0 0 0 0 0 0
0 0 0 0 0 0 0 0 0 0 0 0 0 0 0 0 -0 0 0 0 0 0 0 0 0 0 0 0 0 0 0 0 0 0 0 0 0 0 0 0 0 0 0 0
0 0 0 0 0 0 0 0 0 0 0 0 0 0 0 0 0 0 0 0 0 0 0 0 0 0 0 0 0 0 0 0 0 0 0 0 0 0 0 0 0 0 0 -0
0 0 0 0 0 0 0 0 0 0 0 -0 0 0 0 0 0 0 0 0 0 0 0 0 0 0 0 0 0 0 0 0 0 0 0 0 0 0 0 0 0 0 0 0
0 0 0 0 0 0 -0 -0 -0 -0 -0 -0 0 0 0 0 0 0 0 0 0 0 0 0 0 0 0 0 0 0 0 0 0 0 0 0 0 0 0 0 0 0 0 0
Wind_Speed_500mb
34 39 41 40 39 39 31 43 33 37 18 29 11 12 9 12 8 6 8 10 20 28 36 43 54 65 72 76 77 79 83 88 91 93 92 88 83 78 72 65 61 59 58 55
35 39 26 39 43 25 19 31 36 24 18 8 12 21 18 19 12 6 5 13 16 21 33 37 41 48 55 65 67 72 80 86 89 93 91 86 83 80 74 69 64 63 60 58
23 30 51 5 14 18 23 17 26 28 20 16 10 15 17 22 21 19 13 9 10 17 30 36 40 48 55 59 63 66 70 81 86 90 89 85 84 83 77 72 68 64 61 59
12 21 10 7 10 20 21 15 23 16 24 26 11 24 36 40 32 32 31 25 12 7 17 31 37 42 52 58 61 66 67 74 81 84 84 85 85 82 77 72 67 64 64 60
4 6 26 11 10 13 15 13 31 29 18 31 5 44 39 43 38 37 34 28 21 15 10 18 28 36 45 56 61 61 65 70 79 82 83 84 85 82 77 74 69 67 62 60
8 6 8 6 13 18 15 3 37 29 31 18 24 11 12 44 46 44 40 39 31 23 22 20 20 25 38 50 58 55 60 65 72 75 79 83 83 80 76 72 68 64 61 61
13 11 14 14 26 30 10 15 34 50 41 43 27 19 33 50 62 54 52 46 35 29 24 21 17 19 28 36 45 48 49 52 64 70 76 79 80 77 74 72 68 65 63 61
4 5 11 28 13 10 8 16 33 32 44 45 42 39 46 43 52 58 56 59 53 43 37 26 19 16 21 25 29 37 42 45 52 59 65 71 72 73 72 70 69 67 64 62
7 6 8 34 10 12 15 17 22 29 22 23 31 30 41 38 44 46 47 53 54 54 45 38 28 19 18 17 18 25 34 39 46 52 58 63 67 71 71 69 69 69 67 65
7 13 26 17 14 27 15 13 16 17 19 21 27 29 31 32 38 39 41 42 47 43 45 45 39 28 22 17 17 19 27 35 41 47 51 55 58 63 67 69 69 68 69 69
16 29 37 46 48 36 4 16 21 17 21 23 24 26 29 33 23 41 41 40 43 43 38 38 38 33 28 16 14 19 24 29 36 41 44 49 52 57 61 62 63 66 66 64
16 34 19 18 11 8 12 26 26 23 24 18 24 29 30 32 31 33 40 39 38 35 30 28 29 28 26 24 14 9 16 23 31 38 43 46 48 52 52 51 54 57 57 59
35 57 37 35 26 29 30 27 21 20 24 31 30 31 33 37 37 37 42 37 34 38 35 30 25 23 18 18 17 15 10 11 21 29 38 44 47 49 52 55 54 53 55 57
70 62 36 56 44 35 38 40 38 29 36 38 35 36 35 33 40 39 37 40 39 36 36 36 28 22 19 13 10 7 8 7 6 10 22 32 39 43 46 50 55 57 57 57
70 68 63 62 44 50 50 46 42 45 42 33 32 35 37 36 37 39 42 41 43 42 36 34 33 24 21 18 11 7 3 1 1 4 8 14 24 32 39 44 48 49 53 57
57 54 60 58 60 55 58 59 56 54 49 37 35 34 32 34 39 39 36 40 44 47 42 36 34 32 24 23 20 16 12 11 10 9 8 9 12 17 25 35 42 47 52 57
55 44 59 60 66 64 60 63 60 49 43 39 41 40 37 38 40 38 37 37 40 42 42 40 36 34 34 31 28 27 23 20 19 19 18 16 14 13 13 17 24 34 43 50
68 73 73 74 72 66 65 64 59 52 47 46 45 47 46 41 38 40 40 37 40 42 35 32 31 37 37 37 37 35 34 29 28 25 23 23 20 17 16 17 18 20 25 35
60 63 71 72 69 64 61 58 57 53 49 49 52 53 52 47 41 41 43 45 40 39 31 29 27 29 37 39 37 37 40 40 37 34 31 29 27 24 22 20 19 22 25 29
61 62 62 59 54 51 49 47 48 49 50 55 57 54 52 51 50 48 49 53 47 37 36 36 36 35 32 33 41 39 39 44 44 40 38 37 36 35 33 31 27 25 27 32
51 49 48 48 47 46 44 45 49 50 49 50 46 43 45 45 44 47 52 54 43 34 35 35 35 32 30 29 32 40 43 44 45 44 41 41 41 42 42 40 38 36 33 34
34 35 36 35 34 34 35 37 37 37 37 38 38 37 40 38 40 44 48 51 39 39 44 44 40 36 32 30 31 36 41 45 44 45 44 44 45 45 44 45 46 44 43 41
23 23 22 23 24 25 24 26 27 31 33 35 35 35 36 38 44 47 49 35 39 37 40 42 44 45 44 37 32 35 40 44 46 46 45 44 44 44 46 45 45 46 46 45
18 18 17 16 16 17 19 23 23 26 33 36 36 37 38 40 47 46 44 44 44 46 48 43 42 44 50 49 45 40 40 42 45 47 47 45 46 44 44 44 41 39 42 43
13 14 14 15 17 18 20 23 25 26 32 37 37 39 38 39 49 46 47 47 51 51 50 44 42 45 52 55 55 50 49 46 44 44 46 49 50 48 46 43 42 39 39 40
9 11 13 15 18 21 25 29 32 31 35 39 39 39 40 43 49 53 54 50 51 54 56 51 47 52 52 53 58 59 56 52 49 44 43 45 47 49 48 44 41 38 38 37
10 12 15 17 21 26 30 33 38 39 40 43 49 43 44 45 48 52 55 56 54 56 59 59 53 49 53 61 62 57 58 59 57 52 48 47 48 47 46 48 44 39 35 36
Wind_Direction_500mb
308 299 293 276 286 294 252 234 237 227 236 245 330 347 331 344 351 135 163 178 185 172 169 178 185 188 188 189 196 199 199 199 199 198 201 198 195 195 195 195 196 197 194 191
302 303 296 297 296 309 248 251 242 255 241 49 6 13 21 20 9 44 147 165 189 178 177 173 183 183 182 188 189 186 194 196 197 198 199 196 193 193 194 194 195 195 195 195
293 304 304 279 319 314 313 322 237 235 251 256 48 32 18 17 42 44 71 101 168 183 182 185 184 186 183 181 182 182 184 193 196 196 195 193 192 193 194 195 195 195 195 196
276 301 312 234 350 309 311 350 348 303 270 312 116 90 44 32 47 47 58 68 74 131 174 178 183 187 186 184 180 181 181 186 195 195 194 191 191 194 194 195 196 196 197 196
237 287 274 297 11 8 355 20 354 339 194 255 273 101 36 30 39 47 53 61 74 92 115 140 168 183 184 183 182 181 179 186 193 194 192 190 192 194 195 196 196 199 198 197
326 297 269 38 343 297 306 48 354 349 351 23 345 93 11 28 41 45 52 56 64 89 96 106 138 165 177 181 184 184 181 188 191 193 193 193 194 195 196 199 200 199 199 201
259 276 275 337 327 310 343 339 350 6 9 46 45 56 47 46 49 51 52 55 56 64 85 103 114 132 159 177 186 190 190 192 192 193 194 195 195 197 197 198 200 201 202 202
225 232 279 356 14 40 208 301 359 30 17 25 14 10 16 28 32 36 48 48 49 52 58 78 108 121 137 156 177 190 194 193 194 195 195 197 199 198 199 200 201 201 202 203
217 232 313 315 284 320 327 355 10 30 20 33 25 16 4 3 14 18 27 36 38 43 51 57 66 92 126 132 158 177 185 189 192 194 197 200 201 202 201 202 204 203 204 205
44 258 256 282 308 313 312 16 21 25 17 20 6 360 13 357 351 8 11 18 19 28 38 45 51 61 83 118 141 157 176 184 189 195 198 200 202 205 207 206 206 207 207 207
251 267 267 267 279 269 273 357 346 347 356 1 355 347 342 343 343 339 352 351 357 7 18 29 39 49 55 74 125 153 168 181 189 195 201 203 204 210 213 215 218 214 213 214
233 243 239 265 209 252 309 325 322 322 328 340 341 327 323 318 319 318 331 338 343 347 359 12 24 36 46 53 71 128 170 180 191 194 198 203 206 207 209 216 220 221 222 223
240 253 259 266 267 276 304 308 301 314 324 318 327 329 317 305 301 304 310 320 322 329 337 352 4 10 22 34 48 68 105 171 191 197 204 206 207 211 212 211 215 220 221 219
238 248 257 259 266 276 286 289 292 299 314 310 313 323 314 292 287 287 291 296 303 308 319 324 335 344 344 357 9 30 67 89 125 183 207 211 214 216 218 219 220 218 217 219
232 231 238 254 261 268 282 282 276 290 304 296 300 318 317 299 284 280 279 280 281 295 304 307 313 319 319 321 323 312 281 280 135 152 169 195 211 216 220 222 222 222 224 221
228 228 233 243 250 257 271 272 275 285 290 283 287 299 310 298 290 288 281 275 276 275 286 293 299 305 299 294 295 295 284 255 247 244 224 214 202 209 217 222 223 222 221 225
231 210 219 230 241 254 257 263 267 269 267 265 276 285 288 291 287 282 278 269 268 268 270 284 299 300 301 297 288 282 284 276 259 250 247 249 246 239 232 229 225 224 226 227
230 236 236 240 244 249 250 255 256 253 252 255 263 273 277 277 283 287 278 274 265 264 268 275 287 295 298 295 292 285 277 274 272 267 261 253 250 251 252 248 243 236 227 230
223 228 233 235 238 242 242 244 243 243 246 253 263 267 268 270 270 274 275 269 268 270 267 262 267 277 291 293 286 275 271 266 266 266 264 262 260 259 260 258 258 255 251 243
220 218 223 227 230 233 235 236 238 245 252 256 259 262 264 264 266 266 267 267 267 271 271 270 266 270 277 282 280 273 256 254 253 255 256 258 260 262 264 268 268 263 264 263
220 221 223 227 230 233 237 241 246 248 248 254 261 266 265 262 263 261 260 264 261 273 269 268 265 257 266 277 276 276 264 252 246 248 250 254 254 256 259 262 265 267 263 262
213 215 217 218 221 225 227 231 236 243 250 252 256 261 266 271 270 264 262 264 265 260 255 253 253 255 261 270 264 263 264 257 249 243 243 245 249 250 251 256 260 263 266 264
201 205 206 208 216 224 233 243 248 256 263 265 264 265 269 272 272 274 270 270 266 262 257 254 249 247 245 254 255 259 257 254 251 249 247 248 248 248 249 249 252 255 258 262
191 196 210 224 233 241 243 256 263 268 273 274 277 276 276 274 270 272 275 272 267 267 264 259 252 246 242 241 241 242 251 257 249 248 251 251 250 249 247 249 252 257 258 258
209 229 239 250 262 270 273 274 274 274 273 275 278 278 278 277 278 279 276 274 274 271 262 255 253 248 246 243 242 245 247 248 255 249 248 249 248 246 249 250 252 253 260 261
251 264 270 275 284 291 292 292 291 289 288 285 278 277 278 277 276 276 275 272 270 270 270 268 258 250 247 248 246 244 246 252 250 249 249 246 247 245 243 244 246 248 250 255
266 284 293 299 300 297 296 294 294 295 295 294 291 290 285 278 275 275 275 276 274 274 274 272 265 257 250 247 248 248 247 248 250 250 247 248 246 244 241 241 240 238 244 247
Wind_Speed_850mb
34 39 41 40 39 39 31 43 33 37 18 29 11 12 9 12 8 6 8 10 20 28 36 43 54 65 72 76 77 79 83 88 91 93 92 88 83 78 72 65 61 59 58 55
35 39 26 39 43 25 19 31 36 24 18 8 12 21 18 19 12 6 5 13 16 21 33 37 41 48 55 65 67 72 80 86 89 93 91 86 83 80 74 69 64 63 60 58
23 30 51 5 14 18 23 17 26 28 20 16 10 15 17 22 21 19 13 9 10 17 30 36 40 48 55 59 63 66 70 81 86 90 89 85 84 83 77 72 68 64 61 59
12 21 10 7 10 20 21 15 23 16 24 26 11 24 36 40 32 32 31 25 12 7 17 31 37 42 52 58 61 66 67 74 81 84 84 85 85 82 77 72 67 64 64 60
4 6 26 11 10 13 15 13 31 29 18 31 5 44 39 43 38 37 34 28 21 15 10 18 28 36 45 56 61 61 65 70 79 82 83 84 85 82 77 74 69 67 62 60
8 6 8 6 13 18 15 3 37 29 31 18 24 11 12 44 46 44 40 39 31 23 22 20 20 25 38 50 58 55 60 65 72 75 79 83 83 80 76 72 68 64 61 61
13 11 14 14 26 30 10 15 34 50 41 43 27 19 33 50 62 54 52 46 35 29 24 21 17 19 28 36 45 48 49 52 64 70 76 79 80 77 74 72 68 65 63 61
4 5 11 28 13 10 8 16 33 32 44 45 42 39 46 43 52 58 56 59 53 43 37 26 19 16 21 25 29 37 42 45 52 59 65 71 72 73 72 70 69 67 64 62
7 6 8 34 10 12 15 17 22 29 22 23 31 30 41 38 44 46 47 53 54 54 45 38 28 19 18 17 18 25 34 39 46 52 58 63 67 71 71 69 69 69 67 65
7 13 26 17 14 27 15 13 16 17 19 21 27 29 31 32 38 39 41 42 47 43 45 45 39 28 22 17 17 19 27 35 41 47 51 55 58 63 67 69 69 68 69 69
16 29 37 46 48 36 4 16 21 17 21 23 24 26 29 33 23 41 41 40 43 43 38 38 38 33 28 16 14 19 24 29 36 41 44 49 52 57 61 62 63 66 66 64
16 34 19 18 11 8 12 26 26 23 24 18 24 29 30 32 31 33 40 39 38 35 30 28 29 28 26 24 14 9 16 23 31 38 43 46 48 52 52 51 54 57 57 59
35 57 37 35 26 29 30 27 21 20 24 31 30 31 33 37 37 37 42 37 34 38 35 30 25 23 18 18 17 15 10 11 21 29 38 44 47 49 52 55 54 53 55 57
70 62 36 56 44 35 38 40 38 29 36 38 35 36 35 33 40 39 37 40 39 36 36 36 28 22 19 13 10 7 8 7 6 10 22 32 39 43 46 50 55 57 57 57
70 68 63 62 44 50 50 46 42 45 42 33 32 35 37 36 37 39 42 41 43 42 36 34 33 24 21 18 11 7 3 1 1 4 8 14 24 32 39 44 48 49 53 57
57 54 60 58 60 55 58 59 56 54 49 37 35 34 32 34 39 39 36 40 44 47 42 36 34 32 24 23 20 16 12 11 10 9 8 9 12 17 25 35 42 47 52 57
55 44 59 60 66 64 60 63 60 49 43 39 41 40 37 38 40 38 37 37 40 42 42 40 36 34 34 31 28 27 23 20 19 19 18 16 14 13 13 17 24 34 43 50
68 73 73 74 72 66 65 64 59 52 47 46 45 47 46 41 38 40 40 37 40 42 35 32 31 37 37 37 37 35 34 29 28 25 23 23 20 17 16 17 18 20 25 35
60 63 71 72 69 64 61 58 57 53 49 49 52 53 52 47 41 41 43 45 40 39 31 29 27 29 37 39 37 37 40 40 37 34 31 29 27 24 22 20 19 22 25 29
61 62 62 59 54 51 49 47 48 49 50 55 57 54 52 51 50 48 49 53 47 37 36 36 36 35 32 33 41 39 39 44 44 40 38 37 36 35 33 31 27 25 27 32
51 49 48 48 47 46 44 45 49 50 49 50 46 43 45 45 44 47 52 54 43 34 35 35 35 32 30 29 32 40 43 44 45 44 41 41 41 42 42 40 38 36 33 34
34 35 36 35 34 34 35 37 37 37 37 38 38 37 40 38 40 44 48 51 39 39 44 44 40 36 32 30 31 36 41 45 44 45 44 44 45 45 44 45 46 44 43 41
23 23 22 23 24 25 24 26 27 31 33 35 35 35 36 38 44 47 49 35 39 37 40 42 44 45 44 37 32 35 40 44 46 46 45 44 44 44 46 45 45 46 46 45
18 18 17 16 16 17 19 23 23 26 33 36 36 37 38 40 47 46 44 44 44 46 48 43 42 44 50 49 45 40 40 42 45 47 47 45 46 44 44 44 41 39 42 43
13 14 14 15 17 18 20 23 25 26 32 37 37 39 38 39 49 46 47 47 51 51 50 44 42 45 52 55 55 50 49 46 44 44 46 49 50 48 46 43 42 39 39 40
9 11 13 15 18 21 25 29 32 31 35 39 39 39 40 43 49 53 54 50 51 54 56 51 47 52 52 53 58 59 56 52 49 44 43 45 47 49 48 44 41 38 38 37
10 12 15 17 21 26 30 33 38 39 40 43 49 43 44 45 48 52 55 56 54 56 59 59 53 49 53 61 62 57 58 59 57 52 48 47 48 47 46 48 44 39 35 36
Wind_Direction_850mb
308 299 293 276 286 294 252 234 237 227 236 245 330 347 331 344 351 135 163 178 185 172 169 178 185 188 188 189 196 199 199 199 199 198 201 198 195 195 195 195 196 197 194 191
302 303 296 297 296 309 248 251 242 255 241 49 6 13 21 20 9 44 147 165 189 178 177 173 183 183 182 188 189 186 194 196 197 198 199 196 193 193 194 194 195 195 195 195
293 304 304 279 319 314 313 322 237 235 251 256 48 32 18 17 42 44 71 101 168 183 182 185 184 186 183 181 182 182 184 193 196 196 195 193 192 193 194 195 195 195 195 196
276 301 312 234 350 309 311 350 348 303 270 312 116 90 44 32 47 47 58 68 74 131 174 178 183 187 186 184 180 181 181 186 195 195 194 191 191 194 194 195 196 196 197 196
237 287 274 297 11 8 355 20 354 339 194 255 273 101 36 30 39 47 53 61 74 92 115 140 168 183 184 183 182 181 179 186 193 194 192 190 192 194 195 196 196 199 198 197
326 297 269 38 343 297 306 48 354 349 351 23 345 93 11 28 41 45 52 56 64 89 96 106 138 165 177 181 184 184 181 188 191 193 193 193 194 195 196 199 200 199 199 201
259 276 275 337 327 310 343 339 350 6 9 46 45 56 47 46 49 51 52 55 56 64 85 103 114 132 159 177 186 190 190 192 192 193 194 195 195 197 197 198 200 201 202 202
225 232 279 356 14 40 208 301 359 30 17 25 14 10 16 28 32 36 48 48 49 52 58 78 108 121 137 156 177 190 194 193 194 195 195 197 199 198 199 200 201 201 202 203
217 232 313 315 284 320 327 355 10 30 20 33 25 16 4 3 14 18 27 36 38 43 51 57 66 92 126 132 158 177 185 189 192 194 197 200 201 202 201 202 204 203 204 205
44 258 256 282 308 313 312 16 21 25 17 20 6 360 13 357 351 8 11 18 19 28 38 45 51 61 83 118 141 157 176 184 189 195 198 200 202 205 207 206 206 207 207 207
251 267 267 267 279 269 273 357 346 347 356 1 355 347 342 343 343 339 352 351 357 7 18 29 39 49 55 74 125 153 168 181 189 195 201 203 204 210 213 215 218 214 213 214
233 243 239 265 209 252 309 325 322 322 328 340 341 327 323 318 319 318 331 338 343 347 359 12 24 36 46 53 71 128 170 180 191 194 198 203 206 207 209 216 220 221 222 223
240 253 259 266 267 276 304 308 301 314 324 318 327 329 317 305 301 304 310 320 322 329 337 352 4 10 22 34 48 68 105 171 191 197 204 206 207 211 212 211 215 220 221 219
238 248 257 259 266 276 286 289 292 299 314 310 313 323 314 292 287 287 291 296 303 308 319 324 335 344 344 357 9 30 67 89 125 183 207 211 214 216 218 219 220 218 217 219
232 231 238 254 261 268 282 282 276 290 304 296 300 318 317 299 284 280 279 280 281 295 304 307 313 319 319 321 323 312 281 280 135 152 169 195 211 216 220 222 222 222 224 221
228 228 233 243 250 257 271 272 275 285 290 283 287 299 310 298 290 288 281 275 276 275 286 293 299 305 299 294 295 295 284 255 247 244 224 214 202 209 217 222 223 222 221 225
231 210 219 230 241 254 257 263 267 269 267 265 276 285 288 291 287 282 278 269 268 268 270 284 299 300 301 297 288 282 284 276 259 250 247 249 246 239 232 229 225 224 226 227
230 236 236 240 244 249 250 255 256 253 252 255 263 273 277 277 283 287 278 274 265 264 268 275 287 295 298 295 292 285 277 274 272 267 261 253 250 251 252 248 243 236 227 230
223 228 233 235 238 242 242 244 243 243 246 253 263 267 268 270 270 274 275 269 268 270 267 262 267 277 291 293 286 275 271 266 266 266 264 262 260 259 260 258 258 255 251 243
220 218 223 227 230 233 235 236 238 245 252 256 259 262 264 264 266 266 267 267 267 271 271 270 266 270 277 282 280 273 256 254 253 255 256 258 260 262 264 268 268 263 264 263
220 221 223 227 230 233 237 241 246 248 248 254 261 266 265 262 263 261 260 264 261 273 269 268 265 257 266 277 276 276 264 252 246 248 250 254 254 256 259 262 265 267 263 262
213 215 217 218 221 225 227 231 236 243 250 252 256 261 266 271 270 264 262 264 265 260 255 253 253 255 261 270 264 263 264 257 249 243 243 245 249 250 251 256 260 263 266 264
201 205 206 208 216 224 233 243 248 256 263 265 264 265 269 272 272 274 270 270 266 262 257 254 249 247 245 254 255 259 257 254 251 249 247 248 248 248 249 249 252 255 258 262
191 196 210 224 233 241 243 256 263 268 273 274 277 276 276 274 270 272 275 272 267 267 264 259 252 246 242 241 241 242 251 257 249 248 251 251 250 249 247 249 252 257 258 258
209 229 239 250 262 270 273 274 274 274 273 275 278 278 278 277 278 279 276 274 274 271 262 255 253 248 246 243 242 245 247 248 255 249 248 249 248 246 249 250 252 253 260 261
251 264 270 275 284 291 292 292 291 289 288 285 278 277 278 277 276 276 275 272 270 270 270 268 258 250 247 248 246 244 246 252 250 249 249 246 247 245 243 244 246 248 250 255
266 284 293 299 300 297 296 294 294 295 295 294 291 290 285 278 275 275 275 276 274 274 274 272 265 257 250 247 248 248 247 248 250 250 247 248 246 244 241 241 240 238 244 247